Location: Goettingen
(51.5300°N, 9.9433°E)
Time: 10:21:12
(UTC+01:00)

ISS - Pass Details

Date: 21 March 2023
Orbit: 414 x 423 km, 51.6° (Epoch: 20 March)

Event Time Altitude Azimuth Distance (km) Brightness Sun altitude
Rises 19:26:17 0° 243° (WSW) 2,353 0.9 -8.8°
Reaches altitude 10° 19:28:23 10° 239° (WSW) 1,491 -0.2 -9.1°
Maximum altitude 19:31:40 57° 160° (SSE) 497 -3.6 -9.6°
Enters shadow 19:34:26 14° 83° (E) 1,282 -1.9 -10.0°
